Location: Klein M�hlingen
(51.9472°N, 11.7453°E)
Time: 13:40:58
(UTC+00:00)

Cosmos 1153 Rocket - Pass Details

Date: 09 April 2020
Orbit: 954 x 1006 km, 82.9° (Epoch: 02 June)

Event Time Altitude Azimuth Distance (km) Brightness Sun altitude
Rises 21:59:20 0° 349° (N) 3,705 8.8 -27.9°
Reaches altitude 10° 22:01:51 10° 350° (N) 2,760 7.8 -28.1°
Maximum altitude 22:08:13 89° 258° (WSW) 1,005 4.4 -28.4°
Enters shadow 22:08:41 79° 176° (S) 1,022 4.4 -28.4°
